Tracking 18945 objects as of 21-Jan-2018
HD Live streaming from Space Station
objects crossing your sky now

CZ-3B DEB

Track CZ-3B DEB now!


NORAD ID: 40160
Int'l Code: 2010-042M
Perigee: 1,141.1 km
Apogee: 41,211.1 km
Inclination: 26.9 °
Period: 758.4 minutes
Semi major axis: 27547 km
RCS: Unknown
Launch date: September 4, 2010
Source: People's Republic of China (PRC)
Launch site: Xichang Space Center, China (XSC)

Note: This is SATELLITE DEBRIS
aabbcc
Your satellite tracking list
Your tracking list is empty




NASA's NSSDC Master Catalog

Two Line Element Set (TLE):
1 40160U 10042M   18019.01626633 -.00000163  00000-0  00000+0 0  9994
2 40160  26.9410 284.8653 7273011 191.3530  13.2473  1.89884665 28852
Source of the keplerian elements: AFSPC